This demonstration page uses our WeatherBlox Daily Observations layout. Learn more.

Left ArrowRight Arrow

39.92423, -83.80882

Hourly Observations for April 21, 2020

Temp ( °F °C ) Dew Point ( °F °C ) Humidity (%) Winds ( mph kmh ) Pressure ( in mb ) Visibility ( mi km ) Precip ( " mm )
12:56 am 00:56 Partly Cloudy 52 11.1 37 2.8 57 57 SW 10 17 29.64 1004 10 16.0934 0 0
1:56 am 01:56 Cloudy 53 11.7 39 3.9 59 59 WSW 21 33 29.63 1004 10 16.0934 0 0
2:56 am 02:56 Mostly Cloudy 52 11.1 42 5.6 69 69 SW 18 30 29.6 1002 10 16.0934 0.001 0.001
3:56 am 03:56 Mostly Clear 51 10.6 42 5.6 71 71 SW 15 24 29.57 1001 10 16.0934 0 0
4:56 am 04:56 Mostly Cloudy 52 11.1 42 5.6 69 69 WSW 21 33 29.57 1002 10 16.0934 0 0
5:56 am 05:56 Cloudy 51 10.6 43 6.1 74 74 W 16 26 29.59 1002 10 16.0934 0 0
6:36 am 06:36 Mostly Cloudy 48 9 43 6 82 82 NNW 21 33 29.65 1004 10 16.0934 0 0
6:43 am 06:43 Mostly Cloudy 48 9 39 4 71 71 NNW 20 31 29.66 1004 10 16.0934 0 0
6:56 am 06:56 Cloudy 47 8.3 39 3.9 74 74 NNW 10 17 29.66 1004 10 16.0934 0 0
7:21 am 07:21 Mostly Cloudy 46 8 36 2 66 66 NNW 15 24 29.69 1005 10 16.0934 0 0
7:56 am 07:56 Mostly Cloudy 46 7.8 35 1.7 66 66 NNW 15 24 29.7 1006 10 16.0934 0 0
8:56 am 08:56 Cloudy 45 7.2 34 1.1 66 66 NW 17 28 29.75 1007 10 16.0934 0 0
9:56 am 09:56 Mostly Cloudy 46 7.8 33 0.6 61 61 WNW 21 33 29.77 1008 10 16.0934 0 0
10:56 am 10:56 Mostly Sunny 46 7.8 28 -2.2 50 50 WNW 20 31 29.8 1009 10 16.0934 0 0
11:56 am 11:56 Sunny 46 7.8 25 -3.9 44 44 WNW 24 39 29.83 1010 10 16.0934 0 0
12:56 pm 12:56 Partly Cloudy 48 8.9 28 -2.2 46 46 NW 21 33 29.85 1011 10 16.0934 0 0
1:56 pm 13:56 Sunny 49 9.4 28 -2.2 44 44 WNW 24 39 29.85 1011 10 16.0934 0 0
2:56 pm 14:56 Mostly Sunny 50 10 25 -3.9 38 38 WNW 22 35 29.87 1012 10 16.0934 0 0
3:56 pm 15:56 Sunny 49 9.4 19 -7.2 31 31 NW 21 33 29.9 1012 10 16.0934 0 0
4:56 pm 16:56 Sunny 49 9.4 17 -8.3 28 28 NW 25 41 29.91 1013 10 16.0934 0 0
5:56 pm 17:56 Sunny 48 8.9 17 -8.3 29 29 NW 20 31 29.94 1014 10 16.0934 0 0
6:56 pm 18:56 Sunny 47 8.3 17 -8.3 30 30 NNW 16 26 29.96 1015 10 16.0934 0 0
7:56 pm 19:56 Sunny 45 7.2 17 -8.3 33 33 NW 13 20 29.98 1015 10 16.0934 0 0
8:56 pm 20:56 Clear 40 4.4 17 -8.3 40 40 NNW 8 13 30.01 1016 10 16.0934 0 0
9:56 pm 21:56 Clear 38 3.3 18 -7.8 44 44 NNW 5 7 30.02 1017 10 16.0934 0 0
10:56 pm 22:56 Clear 38 3.3 18 -7.8 44 44 N 6 9 30.04 1017 10 16.0934 0 0
11:56 pm 23:56 Clear 35 1.7 26 -3.3 70 70 Calm 30.04 1017 10 16.0934 0 0

Powered by AerisWeather